sat.trackr.live / text

‹ back to catalog

STARLINK-3393

NORAD 51132 · 2022-005AE

PAYLOAD ACTIVE UNKNOWN

§ Identity

Operator
Country
US
Launch date
2022-01-19
Launch site
AFETR
Launch vehicle
Mass (kg)
RCS (m²)

Purposes: comms

External: N2YO · Heavens-Above · Gunter

§ Orbital elements

Epoch: 2026-09-20T04:20:35.363904Z

Period
93.85 min
Inclination
53.1607°
Eccentricity
0.0001184
Mean motion
15.34371455 rev/d
Perigee alt
462.0 km
Apogee alt
463.6 km
Semi-major
6,840.9 km
B*
-1.9065e-5
RAAN
139.3060°
Arg perigee
94.5526°
Mean anomaly
265.5612°
Rev number
25,817

§ Raw data

STARLINK-33931 51132U 22005AE  26263.18096486 -.00001020  00000+0 -19065-4 0  99912 51132  53.1607 139.3060 0001184  94.5526 265.5612 15.34371455258171

JSON: /api/v1/satellites/51132 · /tle

For live sub-satellite position, see the globe view (requires WebGL).

§ Visibility from observer

Set your observer location to see the next 7 days of passes ≥ 10°. The values pass through the URL so the page stays shareable.

No JS? Fill the form by hand. The geolocation button needs JavaScript.